Wind_Speed
15 15 15 14 14 13 12 12 11 10 10 9 10 11 14 14 9 6 8 7 7 13 11 7 5 6 2 2 4 4 2 2 4 3 3 2 1 2 1 0 1 0 1 0 1 1 1 2 1 1 2 2 1 1 3 4 0 1 1 2 3 2 2 2 6 5 6 9 5 3 1 3 1 3 1 2 1 2 5 5 2 2 6 4 1 5 6
17 17 16 15 14 14 14 14 13 14 15 15 16 19 21 21 19 16 9 2 4 9 6 2 3 2 2 4 5 4 4 4 3 2 3 3 1 2 1 1 2 2 0 2 1 2 1 1 2 1 1 2 0 1 3 3 1 1 1 1 4 3 0 2 4 7 8 7 7 5 3 2 2 5 1 3 0 2 2 2 1 2 8 7 4 7 7
15 16 16 16 17 17 17 17 16 15 14 12 13 16 16 15 17 22 20 13 13 12 9 9 6 2 3 5 3 3 4 5 5 4 4 5 3 2 2 2 2 3 2 3 3 2 2 1 2 3 2 3 0 1 3 3 1 0 2 1 2 1 2 2 2 3 6 7 7 7 5 5 5 7 5 1 1 3 4 3 2 4 6 6 6 8 8
14 14 15 15 16 17 16 14 11 9 8 7 6 7 8 6 6 11 18 22 24 19 13 12 8 4 5 4 2 3 2 2 5 5 4 7 6 4 4 4 2 3 5 4 4 3 2 2 2 2 3 4 1 0 3 2 1 1 2 1 1 1 1 2 5 5 5 7 9 6 3 5 9 13 15 9 3 3 2 1 4 5 6 8 8 10 10
15 14 14 13 12 12 9 8 8 7 7 7 6 7 8 7 3 2 6 12 17 15 11 10 7 3 4 3 1 3 2 2 4 5 4 6 6 4 5 6 4 3 5 4 3 5 4 3 2 2 4 5 3 3 2 1 1 1 2 1 1 3 2 5 6 8 10 10 11 10 5 6 12 13 14 13 12 9 5 5 8 7 6 7 8 13 11
17 16 15 13 12 10 8 8 7 6 7 6 6 9 9 7 5 5 5 3 4 6 7 10 12 7 4 3 1 3 4 3 3 3 3 5 7 4 3 6 5 1 2 2 3 6 6 4 3 3 3 4 5 4 1 2 2 1 1 1 2 3 3 4 3 7 12 10 11 13 8 7 10 8 9 13 14 12 9 8 9 8 5 5 11 14 11
21 20 19 18 17 15 13 13 10 9 10 9 9 13 14 13 10 8 9 7 5 5 5 10 14 11 6 4 3 3 5 4 1 2 3 3 7 7 3 5 7 3 2 2 1 3 2 4 5 2 2 4 3 3 2 1 3 3 1 1 1 2 3 4 2 5 12 11 10 9 6 6 7 5 8 10 9 9 9 7 7 7 4 5 12 14 11
23 23 23 23 22 21 19 18 15 13 12 11 13 15 14 13 12 13 17 14 9 7 5 6 9 7 5 5 3 1 3 3 1 2 4 2 5 6 3 6 8 3 3 3 1 3 5 5 6 3 1 3 1 1 2 1 3 6 2 0 1 1 3 3 2 4 12 10 4 3 5 7 5 7 10 11 11 12 13 9 6 6 5 8 13 12 10
24 24 24 24 23 23 22 21 19 16 14 14 19 21 19 18 18 18 18 10 7 6 5 4 5 4 5 3 1 1 2 1 0 2 4 3 1 2 2 5 6 2 1 1 4 6 6 9 12 10 8 7 5 3 1 1 3 6 2 1 2 1 3 4 5 5 11 9 6 9 10 5 3 9 14 14 11 12 12 7 3 4 7 10 12 11 9
24 24 24 24 24 23 23 23 22 19 16 17 21 22 20 20 17 14 14 8 6 6 4 5 5 2 2 2 1 1 2 1 2 2 2 2 2 3 3 3 3 3 4 5 8 12 13 15 18 18 18 18 16 14 10 5 3 2 1 2 1 2 1 3 4 4 10 12 12 13 11 6 3 6 11 12 10 12 14 9 6 5 5 7 9 9 11
25 25 25 24 25 24 23 24 24 22 19 18 20 19 16 16 15 13 14 9 6 7 5 5 5 1 1 2 2 3 4 2 3 4 0 2 3 5 5 5 3 1 5 11 16 20 21 20 18 16 18 19 17 17 16 12 10 9 4 0 1 2 3 1 1 1 8 13 12 11 9 7 1 3 6 8 7 11 16 15 10 6 3 7 9 10 15
26 26 25 25 25 24 24 24 23 24 22 18 18 18 14 13 11 9 11 8 4 8 7 3 3 3 2 4 4 3 5 5 5 4 2 2 3 5 5 4 2 3 10 17 21 21 18 14 11 9 10 11 11 11 11 10 10 14 12 6 1 1 1 2 1 2 6 7 7 9 10 3 4 4 6 11 12 13 18 19 11 5 6 14 14 15 21
25 26 25 25 25 24 24 24 23 23 23 17 17 19 16 12 10 11 16 13 3 6 7 4 4 7 6 6 7 5 5 5 4 3 2 2 4 5 4 4 5 8 15 19 18 14 8 5 4 4 4 4 2 4 6 7 6 9 13 12 5 1 2 1 1 2 4 5 5 8 8 1 4 3 12 19 19 16 17 19 12 5 8 16 18 21 28
24 24 24 24 24 23 22 23 22 23 22 17 17 19 17 13 12 11 14 12 3 3 7 6 4 7 6 5 5 5 4 4 2 1 1 2 4 5 5 8 10 12 16 17 13 7 3 2 4 5 5 6 5 2 2 2 3 4 8 12 10 5 4 1 2 1 1 3 4 7 8 3 4 7 13 16 15 12 12 14 10 4 15 27 24 23 29
22 22 22 21 21 21 21 21 21 21 22 19 17 18 18 16 14 10 10 15 11 4 5 5 2 4 5 5 5 4 2 2 1 1 1 1 3 5 7 10 11 12 15 14 7 4 3 2 4 5 4 5 5 3 2 3 0 1 2 8 10 6 3 1 1 1 1 2 5 6 7 6 3 5 13 19 20 20 18 14 7 9 29 41 29 21 27
21 21 21 20 20 20 20 20 20 19 20 18 16 16 17 17 15 11 8 13 13 5 3 5 5 4 4 5 5 4 2 1 1 2 2 2 4 5 7 10 10 11 14 12 4 4 5 3 2 2 3 2 2 4 5 5 3 2 2 5 6 2 1 4 2 3 1 2 4 5 5 4 3 7 16 25 30 29 22 14 7 13 32 41 30 24 30
20 20 20 20 20 20 20 20 19 18 18 17 15 15 17 17 15 12 8 11 14 8 3 4 3 2 3 2 3 4 2 0 1 1 1 3 5 6 8 10 9 10 14 10 3 4 5 2 2 2 4 2 1 3 4 4 5 6 3 3 5 4 3 4 1 3 2 2 4 4 3 2 5 11 22 32 34 30 19 11 10 18 31 39 35 31 35
19 19 19 19 19 19 19 20 19 18 18 17 15 14 16 16 14 11 9 10 13 9 5 7 6 4 5 4 3 3 2 2 0 0 2 3 4 7 10 10 9 10 11 7 3 3 4 1 1 1 3 3 1 1 2 3 5 7 6 5 4 4 3 2 1 3 5 4 5 4 3 2 9 20 32 38 31 18 10 10 17 26 35 39 39 39 40
19 19 19 19 19 20 20 20 20 19 18 18 15 14 16 16 13 12 9 10 15 12 8 10 10 8 9 9 7 6 5 5 3 1 1 2 6 10 9 5 6 8 8 5 3 2 2 2 1 2 1 4 3 0 1 2 3 5 6 5 5 5 4 3 2 4 6 4 5 7 4 3 17 29 35 34 20 8 9 20 30 36 38 40 42 43 42
19 19 20 20 20 21 21 21 22 20 19 20 18 15 15 15 12 13 11 11 21 23 15 13 13 12 12 12 10 9 9 9 7 4 3 2 9 10 4 2 6 7 5 5 3 1 1 2 3 1 1 3 3 1 2 3 2 3 5 3 4 3 4 4 4 4 5 5 6 6 3 8 24 29 23 18 13 13 22 30 34 38 40 41 43 43 43
20 20 21 22 22 23 22 23 23 21 21 22 19 14 15 15 14 16 14 8 17 23 18 15 16 15 15 16 15 14 12 11 9 7 4 4 8 7 2 2 6 5 2 2 1 1 0 1 2 1 1 2 1 1 3 4 4 4 4 4 2 2 2 3 3 2 4 4 4 5 9 16 26 25 17 16 21 29 36 37 36 39 43 43 42 44 47
21 22 23 23 23 24 23 24 24 22 22 22 18 16 18 18 17 17 12 6 15 24 21 18 18 17 17 18 17 16 14 12 11 10 7 5 6 6 1 2 4 4 2 1 1 1 1 0 1 1 2 2 1 1 2 1 3 5 6 6 2 2 5 5 4 2 5 7 9 12 18 23 31 33 29 31 37 42 44 43 42 43 44 44 44 47 51
22 23 23 23 23 24 24 24 24 23 22 21 19 19 21 20 18 15 8 8 22 29 24 19 18 17 17 18 17 16 15 13 11 10 10 7 5 5 3 3 5 5 2 1 1 1 1 1 1 1 1 2 1 3 2 1 2 3 5 6 1 2 9 6 2 5 11 12 15 21 24 27 36 40 36 39 44 46 47 48 47 46 47 47 47 49 52
23 23 23 24 24 24 24 24 23 23 22 21 20 20 20 19 17 14 9 11 20 23 18 15 14 14 15 17 16 16 16 14 12 11 11 9 7 6 5 5 7 6 2 2 3 1 0 1 1 1 1 2 1 2 2 2 2 1 4 4 1 5 13 8 3 8 11 9 14 25 29 32 36 36 37 43 48 50 52 54 53 52 52 52 51 52 54
23 24 23 23 23 23 23 23 22 21 21 20 19 18 18 18 16 12 9 10 14 15 12 9 11 13 14 13 15 17 17 15 13 11 11 11 8 7 6 7 8 7 6 6 5 2 1 1 1 2 1 2 1 1 2 1 2 3 5 4 4 9 15 11 6 9 10 10 19 31 38 40 39 39 44 50 53 55 58 59 58 58 58 58 58 56 55
23 23 23 23 22 22 22 21 21 20 19 16 15 16 17 17 15 12 9 9 11 13 11 7 8 10 11 11 14 17 18 15 12 11 12 12 9 7 7 8 9 9 8 6 4 1 2 1 2 3 1 1 1 1 0 3 5 5 5 5 8 11 12 10 11 12 10 11 20 31 33 33 35 41 48 53 55 57 59 59 60 61 62 63 64 62 59
23 22 22 21 21 21 21 20 19 19 16 12 12 15 16 15 14 11 8 7 6 7 7 7 8 9 9 10 12 16 18 15 13 14 13 11 10 9 9 8 8 8 7 4 2 1 3 2 1 2 2 2 2 2 2 7 7 5 3 8 12 10 8 10 12 11 8 11 22 28 22 19 28 41 50 54 55 55 55 58 62 63 63 64 65 67 66
22 21 20 20 20 20 20 19 18 18 16 11 10 12 14 15 14 12 10 8 5 6 14 16 13 11 8 8 10 16 19 15 13 16 14 10 10 10 10 10 8 7 5 2 2 2 3 1 1 1 1 2 2 2 4 7 7 4 3 8 12 10 8 10 9 9 13 22 31 33 26 25 36 47 51 53 54 52 51 56 60 60 61 62 63 64 65
21 20 19 19 19 19 18 18 18 18 15 10 7 8 13 17 16 12 13 13 10 13 23 21 12 7 6 6 8 16 20 15 14 18 14 9 11 13 12 11 9 6 4 2 2 1 1 0 1 2 2 3 2 1 2 4 2 2 2 10 16 14 13 16 15 16 23 31 37 37 33 34 42 49 51 54 53 51 53 56 57 57 59 61 61 60 60
19 19 19 19 19 18 18 17 18 18 15 10 5 5 11 16 15 12 13 13 10 12 17 14 7 6 6 5 7 15 20 16 15 19 15 9 12 15 13 11 9 7 5 3 3 2 2 2 2 2 2 3 2 1 2 2 1 2 4 15 21 18 18 22 22 22 26 32 37 40 40 42 47 52 55 57 56 56 58 58 57 58 59 59 59 59 57
18 18 19 19 18 18 18 19 20 18 15 12 8 5 6 9 11 12 13 12 10 11 14 13 9 7 5 4 5 13 21 18 17 19 15 10 14 16 13 11 9 7 6 4 3 3 2 2 4 4 3 5 4 3 3 2 0 3 13 23 24 21 23 27 29 28 29 32 37 42 46 50 52 52 55 59 59 58 59 60 61 61 60 58 58 55 51
17 17 18 17 17 18 19 19 19 16 14 14 15 13 11 10 11 12 11 11 10 11 12 10 7 4 1 3 4 12 20 19 18 19 15 11 16 18 13 11 10 8 7 6 4 3 3 3 4 5 5 5 4 4 4 3 1 9 21 28 29 29 30 31 33 34 33 34 36 37 40 48 51 50 53 58 59 57 57 61 63 63 61 60 57 52 51
16 16 16 16 16 17 18 18 17 15 15 17 19 19 16 14 12 12 11 11 11 11 9 7 4 1 2 3 3 11 20 19 19 21 16 12 17 17 12 10 9 7 7 6 3 2 3 2 2 5 6 6 6 5 3 3 7 16 25 29 31 35 37 37 37 37 38 41 40 36 38 46 52 53 55 60 63 62 62 63 63 64 63 59 55 54 59
15 15 14 14 14 15 15 16 15 13 14 16 18 19 18 15 12 11 10 9 10 12 11 8 5 0 4 3 1 10 20 19 18 19 15 12 15 15 10 8 6 4 5 6 3 2 2 2 2 3 4 5 7 5 1 6 14 20 24 27 32 39 42 42 42 43 46 48 48 47 48 51 53 55 58 62 65 66 67 66 63 61 59 56 55 58 61
13 13 13 12 12 12 13 14 12 11 11 15 18 19 18 17 15 14 10 8 9 10 9 9 6 2 4 4 1 10 20 18 15 17 13 10 12 13 8 6 4 3 4 5 3 2 2 3 3 1 1 3 4 2 2 10 19 24 26 30 35 39 40 41 45 49 51 52 53 55 55 54 55 57 59 60 64 66 66 64 61 56 54 55 57 60 60
11 12 11 10 9 10 10 11 10 9 11 14 15 15 15 15 16 16 14 14 15 13 9 7 5 3 2 1 3 11 18 15 14 16 12 8 9 9 7 5 3 2 4 4 3 2 3 3 2 1 1 2 1 2 5 16 23 27 30 32 35 37 38 39 44 48 52 55 57 59 59 57 58 59 60 62 66 67 64 60 57 54 54 56 57 60 62
10 10 10 9 8 7 8 10 9 9 10 11 11 11 10 10 10 10 12 16 19 18 14 9 5 3 2 2 5 12 13 10 11 13 10 8 8 7 4 4 3 3 4 3 2 4 5 2 3 2 1 2 3 1 12 22 26 27 30 32 36 39 39 39 43 46 50 53 56 60 61 58 57 58 61 63 65 64 59 55 52 52 53 55 58 62 62
10 10 9 9 8 6 7 8 8 7 7 8 8 7 6 5 5 6 10 13 14 15 16 11 6 5 4 2 5 10 10 8 9 9 7 8 8 5 3 3 3 4 3 1 2 7 6 2 3 3 2 4 2 5 18 27 29 29 31 34 37 39 38 39 42 45 46 45 48 53 55 53 53 56 59 60 61 60 55 52 51 51 53 58 62 61 56
10 9 8 8 8 7 6 6 6 6 6 6 5 4 3 5 4 4 7 8 7 9 12 10 7 7 8 5 6 9 9 9 8 5 5 7 5 3 3 3 3 4 3 1 2 7 5 0 2 3 1 3 4 12 22 31 33 34 36 37 38 39 39 40 41 43 44 45 47 50 51 49 50 54 56 56 57 57 54 54 54 54 57 63 63 55 51
9 8 7 7 7 7 7 6 5 5 4 4 3 3 5 7 6 4 4 5 4 6 8 8 7 8 9 7 5 6 9 9 6 3 3 4 3 3 3 2 3 4 2 2 3 6 3 0 2 2 2 4 12 21 28 34 36 38 39 39 40 41 42 42 43 45 49 51 54 55 54 53 54 55 55 55 56 54 54 56 57 56 60 62 57 50 53
9 8 7 6 6 6 6 6 5 4 3 3 4 4 5 5 5 5 5 3 2 3 7 8 8 9 10 8 6 6 8 8 6 3 3 3 4 4 3 2 3 3 1 2 5 5 2 1 2 1 2 9 21 28 33 37 38 39 40 41 42 44 44 45 47 50 53 55 57 57 58 59 59 57 57 57 56 55 56 58 58 59 61 58 51 51 58
9 8 6 5 5 5 4 4 4 3 3 3 4 3 3 2 3 4 5 3 1 4 7 8 9 11 11 10 8 7 6 6 6 3 1 3 5 4 1 1 3 2 1 4 6 3 3 2 2 2 5 18 28 32 35 39 40 39 39 40 43 45 45 47 50 53 55 56 57 58 59 60 60 59 58 57 57 58 59 58 58 60 61 55 51 55 59
8 7 5 3 4 4 4 4 6 5 3 4 3 2 2 3 2 2 2 2 1 4 6 8 10 11 9 8 9 8 5 5 5 3 1 3 5 3 2 2 2 0 2 5 4 3 1 1 3 3 13 25 31 34 37 40 41 41 41 42 44 46 46 47 51 55 57 57 57 58 60 61 60 60 60 59 58 59 61 60 59 59 58 56 56 58 59
7 7 4 2 3 5 3 3 6 5 3 2 2 1 1 3 1 1 1 2 2 4 7 10 11 11 9 9 10 7 3 3 4 3 2 4 4 2 2 1 2 3 4 4 2 1 2 3 3 8 21 29 33 36 39 41 41 43 44 45 47 48 48 50 53 57 58 58 58 59 60 61 61 62 63 61 59 59 59 59 60 60 58 57 60 62 60
6 6 4 2 4 7 4 1 4 5 2 0 1 3 3 1 2 3 2 2 4 6 8 10 12 12 10 9 8 4 3 4 4 2 2 4 3 1 1 2 2 3 3 1 1 2 2 3 5 16 26 31 35 38 40 40 40 41 43 46 49 49 49 51 55 57 57 57 57 58 59 60 61 62 62 61 60 59 57 56 58 59 58 60 64 65 63
5 5 4 3 3 6 4 1 1 2 1 1 1 3 3 2 2 2 2 3 5 6 9 11 12 11 9 7 3 2 4 4 3 2 3 3 1 1 2 2 1 3 3 1 2 2 3 4 11 22 29 34 38 40 40 40 40 40 42 45 47 48 49 51 54 56 56 55 56 56 57 59 60 60 59 60 61 59 57 56 56 56 56 60 63 65 63
4 4 5 3 1 3 3 2 1 1 2 3 4 4 3 2 1 1 2 4 5 7 9 11 9 7 6 4 2 2 3 4 2 2 3 1 1 2 3 2 1 0 0 1 3 4 4 9 19 28 32 36 38 39 40 40 40 41 43 44 45 47 49 51 53 55 55 54 54 55 56 57 57 57 58 59 59 58 57 56 55 55 56 59 61 61 59
3 3 3 2 2 0 1 2 4 4 5 6 6 5 3 1 1 2 2 3 5 7 10 10 7 4 3 3 2 2 2 3 2 1 1 1 0 2 3 2 2 2 1 3 4 4 7 17 27 31 34 36 37 37 38 39 39 41 43 44 44 46 49 51 52 53 53 53 54 54 55 55 55 55 56 58 59 58 57 57 57 57 58 60 61 60 58
4 4 4 5 4 2 3 5 5 5 6 7 6 5 3 2 1 1 2 3 5 7 8 7 5 2 2 2 1 0 1 2 1 1 2 3 1 0 1 1 3 3 2 4 4 8 17 25 30 32 34 36 36 36 37 38 39 41 42 41 43 46 48 49 50 51 51 52 53 53 53 52 53 54 55 57 57 57 56 56 56 57 59 60 59 58 57
5 5 5 5 3 3 6 7 4 3 7 9 8 6 4 3 2 1 1 3 5 6 6 4 3 2 2 1 2 1 1 0 1 1 2 1 1 2 0 2 3 3 3 5 10 17 25 29 30 32 33 34 34 34 36 37 39 41 40 40 42 46 47 48 48 49 49 50 51 51 51 51 51 53 54 54 54 56 57 57 56 57 58 58 57 56 57
4 4 4 4 3 6 8 6 2 3 7 9 8 6 4 3 2 1 2 4 4 4 3 2 1 1 2 1 1 0 0 0 2 2 0 2 3 3 2 4 5 4 7 14 19 23 26 28 30 31 32 32 32 33 34 36 39 40 40 41 43 46 47 48 48 48 48 48 49 50 51 50 51 53 54 54 54 57 61 63 62 61 61 60 58 56 57
2 3 3 4 5 7 7 5 3 3 4 5 5 4 3 2 1 1 3 4 3 3 3 2 1 1 1 0 1 1 1 1 1 1 2 3 4 5 4 4 5 10 16 21 23 24 27 30 30 30 29 30 31 33 34 37 38 39 40 41 44 45 46 47 47 47 46 47 48 49 50 50 52 54 56 57 57 59 62 65 65 64 63 61 59 57 58
Wind_Direction
88 92 98 103 105 106 108 108 107 104 98 98 102 91 73 70 60 34 61 71 78 90 75 9 22 70 75 94 77 68 91 65 34 25 31 17 356 39 61 75 61 151 228 336 303 291 260 234 275 296 242 273 243 184 12 347 316 70 344 323 359 357 87 11 293 279 276 287 326 45 81 88 97 264 207 177 217 171 207 228 216 254 277 279 318 279 266
88 88 90 97 101 101 100 101 101 100 98 94 92 88 80 72 62 51 52 98 102 93 101 86 65 72 97 79 56 48 70 57 30 20 21 10 27 59 27 9 18 340 19 60 311 308 7 268 312 359 241 282 316 161 1 349 154 97 351 343 5 337 238 32 343 332 330 328 348 351 325 3 292 267 201 139 25 341 244 253 47 247 267 272 259 260 256
89 85 85 91 98 101 101 102 103 100 96 89 85 87 84 75 62 54 58 82 98 94 116 127 121 142 96 64 22 29 56 43 33 38 35 29 45 53 354 341 356 349 21 25 338 353 36 306 327 7 296 279 225 179 327 348 113 85 288 269 351 289 228 87 74 326 321 319 318 314 310 326 313 291 297 17 51 305 279 301 297 246 273 276 246 260 281
89 87 90 95 102 104 102 97 95 93 86 72 71 86 85 78 67 51 56 72 81 83 97 109 111 136 111 72 16 40 56 26 30 37 44 33 34 47 19 351 341 14 34 24 332 323 11 337 333 345 294 282 291 302 323 351 92 351 332 311 24 82 243 211 176 197 243 257 268 284 319 312 299 298 304 313 329 290 278 299 263 262 291 279 269 298 321
88 89 93 101 106 104 93 76 76 87 78 61 70 90 85 74 58 35 53 63 67 66 67 78 91 130 124 99 23 32 9 337 18 33 42 28 25 54 46 30 34 20 21 29 327 305 332 353 330 309 281 270 290 309 306 32 48 355 359 337 81 73 312 257 198 218 243 249 266 286 312 291 279 287 302 313 323 325 317 283 280 293 295 282 321 346 344
86 87 89 93 96 91 81 70 70 77 69 64 86 84 76 84 83 72 89 81 49 52 51 66 76 71 76 101 85 37 26 18 32 9 358 27 29 39 39 26 32 339 315 39 342 325 345 348 316 312 312 309 333 342 348 97 54 359 331 318 109 110 268 256 192 244 262 261 269 278 283 271 268 287 320 323 326 332 327 304 308 323 302 299 342 347 337
85 86 87 86 85 80 76 71 68 74 75 78 94 89 88 102 98 73 85 99 104 107 84 74 73 54 41 66 51 53 58 51 51 318 343 9 13 28 39 336 336 303 230 123 45 331 348 322 303 292 319 319 332 333 319 75 45 14 325 279 111 122 261 265 210 274 285 278 266 268 264 267 289 342 360 342 339 346 341 328 330 330 303 326 343 336 331
84 84 84 83 80 77 72 69 65 72 81 83 88 93 99 109 108 102 101 93 79 83 65 65 75 44 25 59 39 54 84 49 345 9 39 23 342 17 39 302 309 294 187 148 178 232 197 229 256 228 315 320 244 231 266 243 347 2 15 321 41 79 282 310 51 320 303 295 277 269 256 258 300 15 16 359 358 2 356 346 340 334 315 329 340 335 334
80 81 81 80 80 78 75 73 67 64 76 86 89 93 100 108 114 114 108 83 30 47 44 52 84 35 11 54 11 359 73 74 150 49 53 92 315 343 327 292 306 338 57 167 254 267 240 239 254 254 259 261 239 238 249 104 353 355 1 324 9 31 294 334 33 347 304 306 335 322 301 291 36 35 14 1 1 360 349 331 315 331 325 328 339 342 333
78 78 78 76 76 75 73 74 71 65 66 74 86 97 103 106 113 113 106 83 13 28 36 35 70 64 352 64 92 60 89 189 129 83 20 42 30 343 332 319 322 345 352 332 307 303 295 280 277 274 264 256 254 259 265 266 279 299 344 318 315 91 45 328 8 337 297 308 328 322 317 336 34 41 13 357 353 350 340 324 298 304 328 337 336 328 315
78 76 76 74 72 71 69 70 70 69 64 61 78 96 102 104 113 109 100 89 12 21 47 36 57 126 234 70 82 87 85 64 72 88 12 329 4 357 349 348 344 302 310 321 319 314 307 297 290 280 266 260 259 258 260 259 243 225 209 282 307 93 91 277 268 272 288 307 328 327 325 334 317 104 41 358 343 343 338 328 303 273 324 342 319 312 319
77 75 74 72 70 68 66 66 66 67 66 60 71 86 91 99 114 111 100 101 12 29 60 50 52 86 86 78 81 74 71 61 58 78 96 318 357 358 343 351 7 314 315 324 322 315 311 307 295 278 265 261 257 252 254 255 244 231 218 206 261 30 95 258 217 198 278 314 356 340 330 337 176 152 32 1 350 347 338 330 312 274 337 339 326 323 328
75 73 70 68 66 64 62 62 62 63 64 59 63 74 78 85 99 104 100 100 44 25 73 89 64 72 77 78 80 78 74 77 71 67 70 17 6 358 344 344 334 321 326 328 324 320 321 323 320 307 296 299 285 244 242 241 238 231 217 208 211 139 131 232 222 200 292 337 9 323 313 67 129 27 7 3 357 349 337 327 311 286 334 339 334 331 330
73 71 68 65 64 62 60 59 60 60 60 54 55 66 71 72 80 91 97 100 84 26 88 98 55 60 73 67 81 97 85 81 95 54 24 3 358 358 353 345 336 335 338 335 333 343 360 24 13 344 327 358 10 339 267 239 199 201 212 212 204 161 116 343 294 185 289 314 303 293 299 333 45 15 3 356 343 326 320 314 300 331 354 344 336 330 327
71 69 67 64 62 60 58 56 55 57 57 49 48 60 65 64 66 69 91 112 119 76 68 102 92 72 77 67 82 105 72 52 85 315 284 321 355 359 354 350 347 347 348 345 348 25 42 49 28 356 335 2 355 301 326 355 235 164 205 205 196 186 164 145 283 296 24 317 303 311 312 308 330 346 345 345 336 324 319 307 291 10 353 339 329 320 320
67 65 62 60 57 55 53 52 50 51 53 47 40 50 57 58 59 59 78 111 116 90 52 108 110 95 93 80 77 86 83 92 42 343 320 320 350 358 354 353 356 357 357 356 3 54 47 52 56 353 308 331 334 296 320 337 321 359 82 131 141 159 127 97 75 302 354 359 301 300 303 310 332 330 338 347 342 331 321 304 304 356 342 329 321 317 318
62 60 57 55 52 49 48 47 44 43 47 43 31 35 49 53 54 56 66 94 102 99 99 114 106 102 116 97 68 73 68 65 87 41 333 304 328 346 349 353 1 3 4 4 11 55 51 54 68 10 279 244 65 317 317 333 322 323 354 66 77 61 39 52 17 289 308 302 282 278 259 293 334 335 343 348 343 333 328 318 324 338 330 325 324 321 318
56 55 52 50 48 46 44 43 41 37 39 38 26 28 46 51 50 53 60 85 97 97 97 102 103 103 103 95 91 89 45 356 45 252 308 306 326 336 339 350 4 1 2 13 46 58 44 355 48 49 263 266 26 337 307 330 319 317 324 328 356 26 14 4 279 306 317 300 294 305 264 287 351 349 347 346 340 334 340 324 316 322 325 325 324 319 316
53 50 48 46 44 43 42 41 40 36 37 38 28 30 46 48 48 53 52 80 104 109 108 105 101 98 97 92 89 91 73 55 73 70 19 19 337 326 325 352 10 352 354 21 71 78 45 320 324 105 203 293 335 94 241 290 292 315 329 334 0 6 336 330 350 328 321 309 309 306 268 2 1 349 344 345 345 341 326 315 314 319 322 322 320 316 315
50 47 47 44 42 42 41 40 40 36 38 40 31 34 53 53 52 60 55 81 109 112 107 101 99 97 97 93 86 85 76 62 59 66 95 37 337 336 343 6 351 344 354 23 30 43 61 311 306 45 170 271 302 346 299 290 278 315 338 13 28 345 310 334 343 317 310 316 323 318 293 348 352 347 342 348 344 316 313 315 316 320 321 318 317 315 315
50 48 47 45 44 45 42 42 43 39 41 44 32 32 58 57 52 59 52 63 109 111 106 103 102 98 94 90 83 78 72 62 54 47 46 4 353 12 91 249 328 346 12 49 31 298 107 245 282 337 272 268 321 354 305 314 324 336 22 58 47 33 31 327 308 357 7 333 320 322 306 319 336 338 326 320 322 320 322 321 318 318 319 317 315 314 315
51 49 49 47 46 47 45 45 45 41 44 47 33 31 54 55 50 58 54 58 101 106 109 110 105 99 94 88 78 70 65 59 52 43 30 11 10 26 33 277 339 356 345 38 43 294 313 262 236 334 318 289 349 310 255 304 309 319 20 48 66 48 9 308 262 340 328 274 267 291 300 312 326 327 321 320 324 326 325 321 315 314 317 316 314 313 315
52 51 51 49 48 49 47 46 46 43 45 47 38 39 53 56 55 61 62 84 99 104 108 108 104 97 90 83 72 63 56 49 44 38 30 20 6 0 349 342 354 347 330 27 359 254 177 172 205 322 288 225 319 333 325 19 305 293 22 38 119 5 352 331 262 312 301 277 287 304 311 320 324 323 324 325 325 324 324 321 317 315 316 317 316 314 315
51 50 50 49 48 48 47 46 46 44 45 46 42 42 50 55 59 62 63 86 103 108 106 104 105 100 87 77 66 53 43 38 37 33 28 20 6 354 347 344 346 341 326 326 317 281 183 216 178 79 296 239 75 20 308 324 325 324 22 15 281 347 355 350 335 331 321 305 313 317 319 322 323 323 326 326 324 326 326 323 320 319 319 319 319 318 318
51 49 48 47 47 46 45 45 45 44 45 46 43 42 48 55 59 59 63 90 112 116 108 104 109 104 90 75 61 45 33 31 32 28 23 17 7 356 342 330 332 331 318 312 310 284 242 253 135 116 254 267 45 19 263 279 22 46 48 25 318 340 353 348 330 332 322 301 313 321 322 323 326 329 329 326 326 327 327 324 323 323 323 323 322 322 322
50 48 46 45 45 44 44 44 44 43 45 45 43 42 46 53 58 59 67 91 107 108 106 113 123 112 94 74 57 39 28 28 31 24 17 12 6 1 349 335 330 331 326 324 328 298 175 153 112 126 168 273 15 342 286 95 84 83 67 23 344 343 350 340 324 323 311 301 321 329 326 323 327 329 327 325 325 325 325 325 325 325 325 325 325 325 324
49 47 45 43 43 43 43 43 43 43 41 40 43 45 46 53 60 59 66 86 93 97 109 127 141 129 101 78 59 34 23 27 27 14 8 8 7 5 358 346 339 338 337 341 9 98 136 116 88 172 207 282 325 346 95 107 105 105 64 9 360 357 350 338 330 327 320 319 328 331 325 314 319 322 322 323 325 325 325 325 325 326 326 326 325 324 325
48 46 43 43 43 43 43 42 41 40 37 36 44 46 46 54 59 57 64 72 72 116 129 131 135 130 103 79 56 27 17 20 21 11 7 7 7 6 2 358 357 359 0 17 74 108 126 104 348 268 263 340 348 24 99 108 102 91 47 7 1 355 341 338 332 315 311 315 319 322 316 305 311 318 321 323 325 326 325 324 324 325 325 325 324 324 323
45 43 42 42 43 44 44 43 42 39 36 37 50 51 47 52 56 58 69 72 75 110 121 122 123 119 98 81 51 23 14 14 14 10 8 10 8 7 8 8 10 16 23 54 105 102 87 330 313 321 355 7 331 287 98 89 81 103 41 359 352 344 337 336 326 308 308 314 318 320 315 309 313 321 324 325 327 327 325 324 324 324 325 325 324 323 322
42 41 40 39 41 42 41 40 40 38 37 42 62 66 52 54 57 61 72 79 85 110 118 115 112 117 105 89 51 21 12 10 10 9 12 19 13 8 9 13 20 27 32 56 88 55 17 1 359 359 9 8 359 120 99 57 115 183 339 343 342 338 333 333 327 315 312 316 320 321 320 318 322 326 327 327 329 329 326 325 325 325 325 326 324 323 322
39 39 37 36 39 38 35 36 37 35 36 45 64 81 65 61 66 68 75 84 91 105 111 106 108 120 107 79 42 13 7 7 9 9 13 17 11 10 12 16 23 33 41 54 66 53 45 31 19 25 28 22 39 97 104 58 45 303 329 335 336 334 332 331 330 326 322 323 326 327 326 328 330 329 327 328 330 330 328 327 328 328 327 327 325 324 324
38 37 34 35 36 33 32 35 35 32 35 50 67 81 86 85 83 78 83 92 93 98 104 98 100 122 58 19 13 4 3 5 7 9 13 13 8 8 11 15 23 39 47 50 60 54 43 28 18 28 33 34 60 98 90 64 6 322 330 334 335 335 335 334 333 332 331 332 333 329 325 327 330 328 325 326 329 330 329 329 330 330 329 328 326 327 328
37 34 33 35 35 31 32 35 34 33 42 58 72 80 83 90 92 85 88 95 90 89 92 83 86 125 355 5 7 1 3 4 3 4 8 10 5 3 5 14 26 44 45 38 49 55 33 16 34 55 61 64 79 100 89 30 339 327 331 334 335 336 337 335 334 334 335 337 337 332 324 325 328 329 328 329 331 333 333 332 332 332 331 330 329 330 331
35 33 32 32 32 32 32 35 38 42 51 67 80 81 80 87 92 88 93 94 80 79 78 68 78 111 335 352 55 4 2 2 359 359 0 360 359 359 360 7 23 53 42 27 36 69 46 21 44 74 84 69 65 85 86 334 332 330 333 337 339 340 339 337 336 336 336 337 336 334 331 330 331 332 333 333 333 334 334 334 334 333 332 331 331 332 332
34 32 31 29 30 32 33 38 45 52 62 76 85 84 83 86 82 77 82 79 72 82 76 55 63 72 353 357 4 353 355 357 355 354 349 342 350 357 359 2 26 60 26 11 34 91 51 13 13 49 117 50 50 106 289 328 334 337 340 342 343 343 339 335 334 334 335 336 335 334 335 336 334 334 334 333 333 334 334 334 334 333 333 332 332 333 332
34 31 28 26 28 31 35 41 49 60 75 87 92 91 91 89 80 75 73 65 66 79 82 65 75 86 32 307 281 333 347 352 351 352 349 340 344 354 2 10 30 36 9 16 55 44 2 358 13 35 55 47 115 199 337 344 341 342 344 343 342 342 338 333 331 332 333 335 336 335 336 338 336 335 334 334 334 334 334 333 335 335 335 333 332 332 331
32 28 24 24 26 31 38 45 53 68 86 97 100 98 95 90 82 75 64 57 59 64 67 77 96 69 28 229 286 328 340 341 343 351 357 352 343 342 356 16 18 1 1 27 36 356 345 14 68 64 88 131 153 2 353 350 344 342 343 341 340 339 336 332 332 333 333 335 335 335 336 336 335 334 334 333 334 334 334 334 335 335 334 333 332 330 329
25 23 21 22 25 30 36 43 54 76 97 104 103 99 87 77 75 56 40 44 53 51 49 61 75 37 12 305 319 343 346 336 341 356 3 355 349 347 8 25 23 4 356 301 345 357 359 51 78 69 179 188 179 338 343 345 345 344 342 340 338 338 335 334 335 335 333 331 330 331 332 332 332 333 333 332 332 333 333 333 334 334 334 333 331 330 331
18 18 21 26 33 40 45 50 64 86 102 105 105 95 54 39 42 27 19 29 42 38 35 43 43 19 4 340 338 356 355 343 344 359 3 1 4 6 358 2 7 8 11 206 352 9 12 16 49 53 185 240 312 335 340 344 344 342 341 340 338 337 336 335 336 336 334 330 329 329 331 331 331 332 333 333 333 333 333 333 333 334 335 334 333 332 335
15 20 24 30 39 46 48 51 70 93 102 95 85 69 48 42 41 29 16 25 37 32 24 14 359 358 360 345 329 346 355 352 348 333 334 348 351 337 339 347 355 4 21 217 332 3 23 193 17 65 181 302 337 343 344 343 342 340 340 340 339 338 338 337 337 338 337 334 334 334 335 335 335 335 335 335 335 334 333 333 333 334 335 335 335 335 336
16 22 27 32 41 47 49 55 70 86 89 72 59 49 41 36 31 29 34 42 24 353 355 350 342 345 350 343 323 319 338 348 341 307 299 325 335 335 333 324 344 10 145 242 322 359 80 80 359 183 235 333 343 344 343 341 339 339 340 340 339 339 340 339 339 340 340 338 337 337 337 338 338 338 338 338 337 335 334 334 335 336 337 337 335 334 335
16 18 24 36 43 44 50 56 54 51 56 59 53 37 23 22 21 25 36 50 342 330 343 345 339 334 334 333 324 313 321 337 338 318 294 328 336 341 349 339 1 45 178 291 327 19 72 11 308 241 324 343 344 343 341 339 338 338 339 340 340 341 341 340 340 341 341 339 338 338 338 339 339 339 339 338 338 337 337 337 338 338 339 338 336 334 336
11 9 15 37 44 38 41 37 29 31 47 53 46 21 4 12 19 15 19 21 333 333 337 336 335 334 334 335 332 323 316 330 336 330 308 324 330 351 53 33 14 354 296 323 359 61 52 286 218 262 334 341 341 340 339 339 338 338 340 341 341 341 342 342 341 341 341 341 340 339 339 339 339 339 339 339 339 340 341 342 341 341 340 338 336 336 338
2 3 11 36 28 21 20 14 18 29 47 48 57 94 25 355 334 252 329 344 333 333 331 330 333 334 332 333 335 332 323 336 338 334 327 331 340 30 79 351 292 298 319 339 36 57 278 228 225 326 336 338 338 339 339 339 339 339 340 341 342 343 343 343 343 342 341 341 341 340 340 340 340 340 341 342 343 344 343 342 342 342 341 338 336 338 340
1 6 22 53 20 16 17 9 19 34 56 32 126 151 169 227 225 205 228 308 323 328 327 325 326 325 323 327 333 330 324 336 339 334 343 352 6 45 238 261 298 357 9 26 20 332 285 251 317 335 336 336 336 338 339 339 339 340 339 340 342 343 343 343 343 342 341 341 341 340 340 340 340 341 342 343 345 346 344 343 342 342 341 339 339 340 342
12 21 49 84 29 18 30 64 10 30 99 167 152 153 164 175 184 202 259 304 317 323 324 323 323 323 327 336 345 329 331 343 343 339 2 22 54 278 293 292 352 27 38 17 323 295 237 269 322 333 334 334 335 337 338 338 339 340 340 339 340 342 343 343 343 342 341 341 341 340 341 341 341 342 343 344 346 346 345 344 344 343 342 341 341 341 343
26 40 57 84 72 20 37 86 148 150 154 159 153 148 150 159 207 269 298 312 317 320 325 329 327 320 322 338 335 302 332 359 1 336 357 32 217 292 344 15 65 86 111 272 277 249 248 306 326 332 333 334 335 336 337 338 339 340 341 341 340 341 343 344 344 343 342 341 341 340 341 341 342 343 344 344 345 345 345 345 345 345 343 343 343 344 345
48 44 52 100 155 19 47 132 160 163 161 163 164 163 166 191 255 278 294 314 322 322 327 333 334 316 307 330 314 273 330 8 10 330 6 41 326 332 5 12 314 285 209 201 220 246 296 320 328 331 334 336 335 335 336 337 339 340 341 341 341 341 343 344 344 344 343 342 341 340 340 342 343 344 344 343 344 345 346 347 347 346 346 346 346 347 347
65 67 87 115 128 132 144 154 162 170 175 178 181 188 200 223 262 284 297 317 326 326 326 331 333 311 295 326 342 277 358 22 28 353 10 20 30 151 104 323 304 295 238 215 244 300 319 326 330 333 335 335 335 335 336 338 339 340 341 341 340 341 342 343 344 344 343 342 341 340 341 343 345 345 345 344 344 344 345 346 347 347 348 349 348 348 347
66 75 96 105 106 143 159 159 166 201 203 199 199 203 214 229 248 278 319 318 320 324 325 324 313 293 292 359 32 27 349 32 103 64 19 346 173 150 175 252 238 227 242 280 308 320 325 329 331 333 334 335 336 337 337 338 340 341 342 341 341 342 343 344 344 345 344 343 342 341 343 346 347 346 345 344 343 343 344 347 348 348 349 350 350 349 347
76 84 98 103 126 161 167 168 188 223 213 208 208 211 222 236 234 262 314 310 313 322 320 297 289 344 13 24 42 45 264 79 76 67 266 223 178 138 169 229 231 258 309 320 324 326 327 329 332 333 334 335 337 337 338 340 342 343 343 342 342 343 344 345 346 346 345 344 345 345 346 348 348 348 347 346 346 346 348 351 352 352 351 351 351 350 348
100 115 123 133 152 166 174 188 216 221 210 206 207 212 225 235 236 292 304 297 295 299 285 263 245 60 49 255 206 135 85 52 33 358 246 217 189 178 200 243 290 318 323 324 325 326 327 329 332 334 334 335 337 339 341 343 345 345 343 342 343 345 346 346 347 347 346 346 347 348 348 348 349 351 351 352 351 349 349 350 352 352 352 351 350 350 349
Height
1540 1540 1540 1541 1541 1542 1543 1543 1543 1543 1543 1544 1544 1543 1544 1545 1548 1550 1548 1549 1548 1547 1557 1569 1570 1573 1578 1579 1580 1581 1581 1581 1581 1581 1581 1580 1580 1580 1580 1581 1581 1581 1581 1581 1580 1579 1575 1573 1573 1572 1573 1574 1574 1574 1575 1574 1574 1574 1572 1572 1573 1572 1572 1568 1555 1545 1540 1536 1536 1539 1541 1540 1538 1539 1540 1541 1540 1539 1540 1540 1537 1536 1531 1526 1533 1525 1501
1542 1542 1542 1543 1543 1544 1544 1544 1545 1545 1545 1546 1545 1544 1546 1548 1550 1551 1550 1550 1549 1550 1560 1570 1574 1578 1579 1579 1580 1581 1581 1582 1582 1582 1582 1581 1582 1581 1581 1583 1581 1582 1583 1582 1581 1580 1576 1574 1575 1575 1574 1574 1575 1575 1575 1575 1575 1575 1573 1574 1574 1570 1568 1566 1558 1550 1543 1536 1536 1537 1537 1539 1537 1535 1538 1539 1538 1541 1541 1541 1543 1539 1524 1519 1529 1519 1496
1544 1545 1545 1545 1545 1546 1546 1547 1547 1548 1548 1548 1547 1547 1547 1549 1551 1553 1553 1551 1551 1555 1563 1567 1572 1578 1579 1580 1582 1582 1581 1583 1583 1583 1584 1583 1584 1583 1583 1584 1583 1584 1584 1582 1583 1582 1579 1577 1577 1578 1576 1575 1575 1576 1575 1575 1576 1575 1575 1576 1575 1571 1570 1567 1563 1562 1559 1553 1548 1543 1539 1541 1537 1533 1535 1538 1539 1541 1539 1539 1542 1538 1525 1520 1521 1508 1493
1546 1547 1547 1547 1548 1548 1548 1549 1549 1549 1549 1549 1548 1548 1548 1550 1553 1558 1559 1557 1556 1562 1568 1568 1570 1576 1577 1579 1583 1583 1583 1584 1585 1585 1585 1585 1585 1585 1585 1585 1584 1584 1584 1583 1583 1583 1583 1582 1579 1578 1577 1575 1575 1576 1575 1576 1576 1575 1576 1575 1575 1575 1574 1569 1564 1562 1560 1555 1550 1547 1547 1548 1542 1536 1535 1537 1541 1541 1540 1542 1541 1536 1530 1522 1514 1507 1505
1548 1548 1549 1549 1550 1550 1550 1550 1550 1550 1550 1549 1549 1549 1550 1552 1558 1563 1563 1563 1564 1567 1570 1571 1572 1574 1576 1579 1584 1585 1585 1586 1586 1585 1586 1586 1586 1586 1586 1586 1586 1586 1586 1586 1584 1582 1583 1583 1580 1580 1579 1577 1576 1575 1575 1576 1575 1575 1576 1574 1576 1575 1569 1567 1567 1561 1555 1553 1550 1548 1551 1551 1546 1542 1540 1539 1541 1541 1542 1544 1538 1534 1535 1527 1516 1517 1520
1550 1550 1550 1551 1551 1551 1552 1551 1551 1551 1550 1550 1550 1550 1552 1555 1562 1566 1564 1566 1571 1572 1573 1574 1575 1575 1577 1581 1586 1587 1587 1588 1588 1588 1587 1587 1587 1586 1587 1589 1590 1591 1591 1589 1587 1584 1581 1579 1579 1580 1581 1579 1576 1573 1574 1576 1575 1575 1576 1574 1576 1575 1568 1567 1569 1562 1555 1556 1553 1550 1553 1552 1546 1546 1548 1546 1544 1544 1544 1543 1539 1537 1538 1533 1527 1527 1525
1552 1552 1552 1553 1553 1553 1553 1553 1553 1552 1552 1552 1552 1552 1555 1558 1562 1566 1566 1569 1574 1576 1576 1576 1576 1577 1580 1583 1587 1588 1588 1590 1592 1591 1589 1588 1588 1588 1587 1590 1591 1592 1592 1590 1589 1588 1584 1581 1582 1582 1581 1581 1578 1574 1573 1574 1575 1576 1575 1575 1576 1573 1568 1569 1571 1564 1555 1553 1551 1550 1551 1548 1545 1549 1555 1553 1551 1550 1547 1544 1542 1540 1537 1535 1533 1530 1525
1555 1555 1555 1555 1554 1555 1555 1554 1555 1554 1554 1554 1553 1554 1557 1558 1561 1565 1567 1570 1575 1577 1577 1578 1577 1580 1582 1584 1589 1591 1591 1591 1593 1593 1591 1589 1591 1590 1590 1591 1591 1591 1592 1590 1588 1589 1588 1586 1585 1584 1583 1582 1579 1577 1574 1574 1576 1575 1574 1576 1576 1571 1567 1569 1571 1564 1551 1545 1545 1547 1547 1546 1548 1554 1557 1555 1552 1550 1548 1545 1543 1541 1539 1536 1533 1529 1525
1558 1558 1557 1557 1557 1557 1557 1557 1557 1557 1557 1556 1555 1556 1559 1559 1562 1564 1565 1571 1578 1578 1579 1580 1579 1583 1586 1587 1590 1592 1592 1593 1593 1593 1593 1592 1592 1593 1592 1592 1591 1590 1590 1589 1587 1587 1587 1585 1584 1583 1582 1581 1578 1577 1576 1576 1577 1576 1576 1577 1576 1573 1571 1569 1570 1564 1550 1540 1540 1544 1544 1544 1550 1559 1559 1556 1556 1554 1551 1549 1545 1543 1542 1538 1534 1532 1527
1561 1561 1560 1560 1560 1560 1560 1559 1559 1560 1560 1559 1558 1560 1562 1562 1564 1565 1564 1571 1580 1581 1581 1582 1581 1585 1591 1591 1591 1592 1592 1593 1593 1592 1593 1594 1593 1593 1592 1592 1591 1589 1588 1586 1585 1584 1583 1581 1580 1579 1579 1578 1576 1576 1576 1578 1578 1578 1579 1578 1577 1578 1574 1571 1573 1567 1550 1539 1541 1545 1540 1536 1545 1562 1565 1560 1560 1558 1553 1548 1545 1542 1542 1540 1538 1535 1528
1564 1564 1564 1564 1563 1563 1563 1562 1562 1562 1562 1562 1561 1562 1564 1564 1565 1566 1564 1572 1582 1583 1582 1584 1584 1588 1593 1592 1591 1593 1592 1593 1593 1592 1593 1594 1593 1593 1592 1591 1590 1588 1586 1584 1583 1581 1579 1577 1576 1575 1574 1573 1574 1575 1575 1576 1578 1578 1578 1578 1578 1579 1577 1576 1578 1569 1552 1544 1546 1544 1537 1535 1547 1564 1567 1563 1561 1559 1554 1548 1543 1540 1539 1538 1536 1530 1523
1567 1567 1567 1567 1566 1566 1566 1565 1565 1564 1564 1565 1564 1564 1565 1565 1566 1566 1565 1573 1584 1585 1584 1588 1590 1591 1593 1592 1592 1594 1593 1594 1594 1593 1594 1594 1593 1592 1592 1591 1590 1587 1585 1583 1581 1578 1576 1574 1573 1572 1572 1571 1572 1573 1574 1574 1575 1576 1577 1577 1577 1577 1577 1577 1578 1572 1557 1550 1551 1547 1540 1545 1557 1563 1561 1560 1557 1554 1550 1544 1539 1538 1538 1535 1531 1526 1520
1570 1569 1569 1569 1569 1569 1568 1568 1568 1567 1567 1568 1567 1566 1567 1567 1568 1568 1567 1574 1586 1589 1587 1591 1593 1592 1593 1593 1593 1594 1594 1594 1594 1594 1594 1593 1592 1592 1591 1590 1589 1587 1584 1582 1579 1577 1575 1573 1572 1570 1570 1571 1571 1571 1571 1572 1573 1574 1575 1576 1576 1576 1576 1576 1576 1573 1560 1551 1555 1554 1543 1547 1559 1558 1553 1554 1552 1550 1550 1543 1536 1537 1537 1532 1527 1521 1516
1572 1572 1572 1572 1572 1572 1571 1571 1571 1570 1570 1571 1570 1568 1569 1569 1569 1570 1568 1574 1587 1592 1590 1591 1593 1592 1592 1593 1593 1593 1594 1594 1594 1594 1593 1592 1592 1591 1590 1589 1588 1586 1583 1581 1578 1576 1575 1574 1572 1571 1569 1568 1567 1566 1567 1569 1572 1573 1573 1574 1575 1576 1577 1576 1573 1571 1565 1558 1559 1556 1542 1543 1557 1560 1558 1560 1558 1555 1554 1546 1536 1534 1533 1529 1524 1518 1514
1575 1575 1575 1575 1574 1574 1574 1574 1573 1573 1572 1573 1572 1571 1571 1571 1571 1571 1570 1572 1583 1591 1591 1590 1592 1592 1592 1592 1592 1593 1593 1593 1593 1592 1592 1592 1591 1590 1589 1588 1587 1585 1583 1581 1579 1579 1578 1576 1577 1576 1572 1569 1570 1569 1566 1566 1569 1572 1573 1573 1575 1575 1576 1577 1573 1571 1570 1566 1565 1560 1549 1549 1562 1567 1564 1563 1560 1554 1552 1545 1535 1530 1530 1529 1524 1518 1514
1578 1578 1577 1577 1577 1577 1576 1576 1575 1575 1574 1575 1575 1573 1573 1573 1572 1573 1572 1571 1576 1586 1591 1592 1592 1592 1593 1593 1592 1592 1592 1593 1593 1592 1591 1591 1590 1589 1589 1588 1586 1585 1583 1581 1580 1581 1580 1580 1583 1583 1578 1575 1577 1575 1571 1568 1569 1571 1572 1574 1576 1576 1577 1578 1578 1576 1575 1573 1572 1566 1556 1555 1566 1568 1561 1559 1557 1550 1546 1541 1533 1530 1531 1530 1525 1519 1514
1580 1580 1580 1580 1579 1579 1579 1578 1578 1577 1577 1576 1577 1575 1574 1575 1574 1574 1574 1572 1576 1586 1592 1592 1592 1593 1593 1593 1593 1593 1593 1593 1593 1592 1591 1590 1590 1590 1588 1587 1587 1585 1583 1582 1582 1582 1582 1583 1586 1586 1582 1581 1582 1579 1575 1576 1575 1571 1570 1571 1574 1577 1580 1580 1578 1576 1576 1576 1573 1565 1558 1562 1568 1563 1558 1558 1554 1547 1546 1543 1534 1530 1532 1530 1524 1520 1515
1583 1583 1582 1582 1582 1581 1581 1580 1579 1579 1578 1578 1578 1577 1576 1576 1575 1575 1575 1574 1577 1588 1593 1592 1592 1593 1593 1593 1593 1593 1593 1593 1593 1592 1592 1591 1591 1590 1589 1588 1587 1585 1584 1584 1584 1585 1584 1584 1587 1587 1583 1582 1583 1581 1580 1582 1578 1573 1572 1570 1570 1575 1581 1580 1578 1577 1576 1576 1574 1565 1560 1564 1566 1560 1557 1556 1550 1549 1555 1552 1538 1530 1531 1530 1526 1521 1515
1585 1585 1584 1584 1584 1583 1583 1582 1581 1581 1580 1579 1579 1578 1577 1577 1577 1576 1576 1575 1577 1586 1593 1593 1593 1594 1593 1594 1594 1594 1594 1594 1593 1593 1593 1592 1591 1590 1589 1589 1588 1586 1586 1585 1586 1588 1587 1585 1589 1592 1588 1583 1583 1583 1584 1584 1579 1576 1575 1574 1577 1584 1586 1583 1583 1582 1578 1576 1575 1569 1562 1562 1564 1562 1559 1557 1555 1556 1557 1550 1540 1535 1533 1529 1525 1520 1514
1587 1587 1586 1586 1586 1585 1584 1583 1582 1582 1581 1580 1580 1579 1578 1579 1578 1577 1577 1577 1578 1586 1593 1594 1594 1595 1595 1595 1595 1595 1595 1595 1594 1595 1594 1593 1592 1590 1589 1590 1589 1588 1588 1586 1587 1591 1590 1588 1591 1593 1590 1587 1585 1584 1585 1585 1583 1582 1581 1582 1589 1596 1593 1590 1589 1586 1581 1578 1578 1576 1569 1563 1563 1563 1560 1559 1561 1559 1552 1544 1540 1538 1533 1527 1522 1516 1512
1589 1589 1588 1587 1587 1586 1585 1584 1584 1583 1582 1581 1581 1581 1580 1580 1580 1578 1578 1578 1578 1584 1592 1595 1596 1597 1597 1597 1597 1597 1597 1597 1596 1596 1595 1594 1593 1591 1591 1592 1591 1590 1591 1590 1589 1592 1593 1592 1594 1593 1590 1590 1588 1586 1586 1585 1584 1586 1586 1587 1594 1599 1599 1600 1596 1591 1591 1591 1585 1580 1574 1568 1566 1566 1563 1561 1560 1556 1549 1543 1537 1533 1529 1525 1518 1511 1508
1591 1590 1590 1589 1588 1588 1587 1586 1585 1584 1583 1583 1583 1582 1580 1580 1580 1579 1580 1581 1580 1584 1592 1596 1597 1598 1598 1598 1599 1599 1598 1598 1597 1597 1596 1595 1594 1593 1592 1594 1593 1592 1593 1593 1592 1593 1594 1594 1595 1594 1592 1592 1590 1589 1590 1588 1585 1587 1589 1590 1596 1600 1601 1603 1599 1595 1596 1595 1585 1577 1574 1570 1568 1567 1562 1558 1555 1552 1548 1542 1533 1528 1525 1521 1515 1508 1503
1593 1592 1592 1591 1590 1589 1588 1587 1587 1586 1585 1585 1584 1583 1581 1582 1582 1582 1583 1583 1583 1587 1594 1597 1598 1600 1600 1600 1600 1600 1600 1599 1598 1598 1597 1595 1595 1594 1594 1594 1594 1593 1593 1593 1593 1594 1594 1595 1595 1595 1594 1594 1592 1591 1592 1591 1590 1592 1595 1597 1601 1601 1599 1599 1598 1595 1592 1586 1579 1575 1573 1570 1567 1564 1560 1556 1551 1546 1542 1536 1529 1524 1520 1517 1512 1506 1499
1594 1594 1593 1592 1591 1591 1590 1589 1588 1587 1587 1586 1586 1585 1584 1584 1584 1584 1584 1585 1585 1589 1595 1599 1600 1600 1601 1601 1601 1601 1600 1600 1599 1598 1598 1596 1595 1595 1594 1594 1594 1594 1594 1594 1594 1594 1594 1595 1596 1596 1594 1593 1593 1592 1593 1593 1594 1596 1599 1601 1601 1599 1597 1596 1595 1594 1590 1583 1576 1573 1569 1566 1563 1560 1556 1551 1546 1541 1536 1530 1523 1518 1514 1510 1507 1501 1494
1596 1595 1594 1594 1593 1592 1591 1590 1590 1589 1588 1588 1587 1587 1586 1586 1586 1585 1585 1586 1586 1589 1595 1600 1602 1602 1602 1602 1602 1602 1601 1600 1600 1599 1598 1597 1596 1596 1595 1595 1595 1594 1594 1594 1593 1594 1594 1594 1595 1597 1595 1593 1593 1594 1595 1596 1597 1600 1603 1607 1605 1600 1598 1596 1594 1592 1590 1584 1577 1572 1566 1563 1561 1556 1550 1544 1539 1535 1530 1524 1518 1513 1508 1503 1499 1496 1490
1597 1596 1596 1595 1594 1593 1593 1592 1591 1590 1590 1590 1590 1589 1588 1587 1587 1587 1586 1587 1587 1589 1594 1600 1602 1602 1603 1603 1603 1603 1602 1601 1601 1600 1599 1597 1597 1596 1596 1595 1595 1594 1593 1593 1593 1593 1593 1594 1595 1596 1596 1594 1594 1595 1595 1597 1600 1603 1606 1609 1608 1603 1601 1599 1594 1590 1585 1579 1575 1570 1563 1557 1555 1555 1550 1543 1538 1533 1526 1519 1513 1508 1502 1496 1489 1485 1483
1598 1598 1598 1597 1596 1595 1594 1593 1593 1592 1592 1591 1591 1590 1589 1588 1588 1588 1587 1587 1588 1589 1593 1599 1602 1603 1603 1603 1603 1603 1603 1602 1601 1600 1599 1598 1597 1596 1596 1595 1594 1593 1592 1592 1592 1592 1593 1593 1594 1595 1595 1594 1594 1594 1596 1598 1601 1605 1608 1608 1607 1605 1603 1601 1597 1592 1585 1579 1576 1574 1567 1557 1553 1552 1548 1542 1537 1532 1524 1516 1509 1503 1498 1492 1484 1476 1472
1600 1600 1599 1598 1597 1596 1595 1595 1594 1593 1593 1592 1591 1591 1590 1589 1589 1589 1588 1588 1587 1588 1591 1597 1601 1603 1603 1604 1604 1604 1603 1602 1602 1600 1599 1598 1597 1596 1595 1594 1593 1593 1592 1592 1592 1593 1593 1593 1593 1594 1594 1594 1594 1595 1596 1598 1601 1606 1608 1608 1607 1606 1605 1603 1601 1596 1588 1581 1578 1577 1572 1562 1554 1550 1546 1540 1535 1530 1524 1516 1509 1503 1497 1491 1484 1475 1466
1601 1601 1600 1600 1599 1598 1597 1596 1595 1594 1594 1593 1592 1592 1591 1590 1589 1590 1589 1589 1589 1589 1591 1597 1601 1603 1604 1604 1605 1604 1603 1602 1601 1600 1599 1598 1597 1596 1595 1593 1592 1592 1592 1592 1592 1593 1593 1593 1594 1594 1594 1594 1594 1594 1597 1600 1604 1607 1608 1607 1606 1605 1604 1603 1601 1596 1589 1581 1577 1574 1570 1562 1554 1548 1543 1537 1532 1527 1521 1514 1508 1502 1496 1490 1483 1476 1468
1602 1602 1602 1601 1600 1599 1598 1597 1596 1595 1594 1593 1592 1592 1591 1591 1592 1592 1591 1591 1592 1592 1593 1596 1601 1603 1604 1605 1605 1604 1603 1602 1601 1600 1598 1597 1597 1595 1594 1593 1593 1592 1592 1592 1593 1593 1593 1593 1594 1594 1594 1594 1594 1595 1599 1603 1606 1606 1605 1604 1603 1602 1600 1599 1597 1593 1587 1581 1575 1570 1564 1558 1552 1545 1538 1532 1528 1522 1515 1509 1504 1499 1493 1487 1480 1473 1466
1604 1603 1602 1601 1600 1599 1598 1597 1596 1595 1595 1594 1592 1592 1592 1593 1594 1594 1593 1593 1594 1593 1594 1596 1600 1603 1605 1605 1605 1604 1603 1602 1601 1599 1598 1597 1596 1595 1594 1593 1593 1592 1592 1593 1593 1593 1594 1594 1594 1594 1595 1594 1594 1597 1602 1606 1607 1604 1602 1601 1600 1598 1596 1594 1591 1588 1584 1579 1573 1566 1559 1553 1547 1540 1532 1527 1523 1518 1510 1503 1498 1493 1487 1481 1476 1469 1464
1605 1604 1603 1602 1601 1600 1598 1597 1596 1596 1595 1594 1592 1592 1593 1595 1595 1595 1595 1595 1595 1595 1595 1597 1600 1603 1604 1604 1605 1604 1603 1601 1600 1599 1598 1597 1595 1594 1594 1593 1593 1593 1593 1593 1593 1594 1595 1595 1595 1595 1595 1594 1595 1599 1604 1606 1606 1604 1600 1597 1595 1593 1591 1588 1585 1582 1579 1575 1570 1562 1554 1547 1543 1538 1530 1523 1519 1515 1508 1500 1492 1486 1480 1474 1468 1463 1460
1605 1605 1604 1603 1601 1600 1599 1598 1597 1597 1595 1594 1593 1594 1595 1596 1597 1597 1597 1597 1596 1596 1596 1598 1601 1604 1604 1604 1604 1604 1602 1601 1599 1598 1597 1596 1595 1594 1593 1593 1593 1593 1593 1593 1594 1594 1595 1595 1595 1595 1596 1595 1596 1600 1604 1606 1605 1603 1599 1595 1592 1588 1585 1582 1580 1576 1572 1570 1567 1561 1553 1544 1540 1535 1528 1519 1512 1508 1503 1496 1488 1480 1472 1466 1460 1455 1450
1606 1605 1604 1603 1602 1601 1600 1599 1598 1598 1596 1595 1596 1596 1597 1597 1598 1598 1598 1598 1597 1597 1598 1600 1603 1605 1604 1603 1604 1604 1602 1600 1599 1598 1597 1596 1595 1594 1593 1592 1593 1593 1593 1594 1594 1594 1595 1595 1595 1596 1597 1597 1598 1601 1605 1605 1604 1601 1598 1595 1591 1586 1580 1576 1572 1569 1566 1563 1560 1557 1552 1544 1536 1530 1523 1515 1507 1501 1496 1490 1484 1476 1468 1461 1455 1450 1444
1607 1606 1605 1604 1603 1602 1601 1600 1599 1599 1598 1597 1597 1598 1599 1599 1599 1599 1599 1598 1598 1598 1600 1602 1606 1608 1607 1605 1604 1603 1602 1601 1600 1599 1597 1596 1595 1594 1593 1592 1592 1593 1594 1594 1594 1594 1595 1595 1595 1597 1599 1600 1602 1605 1606 1604 1601 1599 1596 1593 1589 1584 1579 1573 1567 1564 1561 1557 1553 1549 1545 1540 1532 1525 1519 1512 1505 1498 1492 1485 1480 1475 1468 1460 1453 1446 1441
1607 1606 1605 1604 1603 1603 1602 1601 1600 1600 1599 1599 1599 1600 1600 1600 1600 1600 1600 1599 1598 1599 1602 1606 1609 1611 1611 1610 1608 1605 1603 1602 1601 1599 1598 1596 1595 1594 1593 1593 1593 1594 1594 1594 1595 1595 1595 1595 1595 1598 1601 1602 1604 1606 1605 1603 1600 1597 1594 1591 1588 1585 1581 1575 1569 1563 1557 1553 1548 1543 1538 1534 1528 1521 1515 1509 1502 1495 1489 1483 1477 1472 1466 1459 1452 1444 1438
1607 1606 1605 1604 1604 1603 1602 1602 1601 1600 1600 1600 1601 1601 1601 1601 1601 1601 1600 1600 1600 1601 1603 1607 1611 1613 1613 1613 1610 1607 1604 1603 1602 1600 1599 1597 1596 1595 1594 1594 1594 1594 1595 1595 1596 1595 1595 1595 1596 1600 1602 1603 1604 1604 1604 1602 1600 1597 1593 1590 1588 1584 1581 1576 1570 1564 1557 1550 1544 1538 1534 1530 1526 1519 1512 1505 1499 1492 1486 1482 1477 1472 1466 1459 1452 1444 1437
1607 1606 1606 1605 1604 1603 1602 1602 1602 1601 1601 1601 1601 1601 1602 1602 1601 1601 1601 1601 1602 1604 1606 1608 1611 1613 1613 1612 1610 1607 1605 1604 1603 1601 1600 1599 1597 1595 1595 1595 1595 1595 1596 1597 1597 1596 1595 1596 1600 1603 1603 1603 1603 1603 1602 1601 1598 1596 1593 1590 1586 1583 1579 1574 1569 1563 1557 1550 1544 1539 1534 1529 1524 1518 1512 1505 1497 1491 1486 1481 1477 1473 1467 1459 1451 1443 1436
1607 1606 1606 1605 1604 1603 1603 1603 1602 1602 1602 1602 1602 1602 1602 1602 1602 1603 1605 1605 1606 1608 1609 1610 1612 1613 1613 1612 1610 1608 1606 1605 1605 1603 1602 1601 1599 1598 1598 1598 1597 1597 1598 1598 1596 1595 1594 1597 1602 1604 1604 1603 1604 1603 1601 1599 1596 1593 1591 1588 1584 1580 1577 1573 1568 1563 1558 1552 1547 1541 1537 1532 1525 1519 1512 1505 1497 1491 1485 1479 1474 1470 1464 1456 1448 1441 1435
1607 1607 1606 1605 1605 1604 1604 1603 1603 1602 1602 1602 1602 1602 1603 1604 1605 1607 1609 1609 1611 1612 1612 1612 1613 1613 1612 1612 1611 1609 1607 1606 1606 1605 1605 1603 1601 1601 1601 1600 1598 1599 1599 1599 1597 1595 1595 1598 1601 1603 1603 1602 1602 1601 1598 1596 1594 1590 1587 1584 1580 1577 1573 1569 1565 1561 1556 1550 1544 1539 1534 1530 1525 1518 1511 1505 1498 1490 1484 1477 1472 1467 1462 1453 1445 1440 1435
1607 1607 1606 1606 1605 1605 1604 1604 1603 1603 1603 1602 1603 1605 1607 1608 1610 1612 1612 1613 1615 1616 1615 1614 1614 1613 1612 1612 1612 1610 1608 1607 1607 1606 1605 1604 1603 1602 1601 1601 1600 1599 1599 1599 1598 1597 1597 1597 1599 1601 1602 1601 1600 1598 1595 1593 1591 1588 1584 1581 1577 1573 1569 1565 1560 1556 1551 1544 1538 1533 1528 1524 1519 1514 1508 1503 1497 1490 1484 1477 1470 1464 1458 1452 1445 1439 1434
1607 1607 1606 1606 1606 1605 1605 1604 1604 1603 1603 1603 1605 1609 1613 1614 1614 1615 1615 1616 1617 1618 1616 1615 1615 1614 1613 1613 1612 1610 1609 1608 1607 1606 1606 1605 1604 1602 1603 1604 1602 1598 1596 1597 1598 1598 1597 1596 1597 1599 1600 1600 1598 1596 1593 1590 1587 1585 1582 1578 1574 1570 1566 1561 1555 1551 1547 1542 1535 1530 1525 1519 1515 1510 1505 1500 1495 1488 1481 1475 1468 1461 1454 1449 1444 1439 1432
1608 1607 1606 1606 1606 1605 1605 1605 1605 1605 1607 1608 1608 1611 1615 1617 1618 1618 1619 1619 1619 1619 1617 1616 1616 1615 1614 1613 1612 1611 1610 1609 1608 1607 1607 1605 1604 1604 1604 1604 1601 1598 1597 1598 1598 1597 1596 1596 1597 1599 1599 1598 1596 1594 1591 1588 1584 1581 1578 1575 1572 1567 1563 1559 1553 1547 1543 1538 1533 1527 1521 1516 1511 1506 1501 1497 1492 1484 1476 1470 1465 1460 1452 1446 1441 1435 1429
1608 1607 1606 1606 1606 1606 1605 1606 1607 1607 1610 1613 1614 1614 1615 1617 1619 1620 1620 1619 1619 1619 1618 1617 1617 1616 1615 1614 1613 1611 1610 1610 1609 1608 1607 1606 1606 1606 1604 1601 1600 1598 1598 1598 1599 1598 1598 1599 1599 1599 1598 1596 1594 1592 1589 1585 1582 1577 1573 1570 1567 1564 1559 1555 1550 1544 1538 1534 1529 1524 1518 1512 1507 1501 1496 1491 1487 1482 1475 1467 1461 1456 1450 1444 1437 1431 1426
1607 1607 1606 1606 1607 1607 1606 1608 1611 1611 1612 1616 1619 1618 1618 1618 1619 1620 1620 1619 1619 1619 1618 1617 1617 1616 1615 1614 1613 1612 1612 1611 1610 1609 1609 1608 1608 1607 1604 1602 1602 1602 1601 1601 1601 1599 1598 1598 1599 1598 1596 1594 1592 1590 1587 1584 1581 1577 1572 1567 1564 1560 1556 1552 1547 1541 1536 1531 1526 1521 1516 1510 1504 1498 1492 1487 1482 1479 1474 1468 1460 1453 1447 1440 1432 1425 1420
1607 1607 1606 1607 1609 1610 1610 1612 1614 1615 1616 1619 1620 1619 1619 1619 1619 1620 1620 1619 1619 1619 1618 1617 1616 1615 1614 1614 1613 1612 1612 1611 1610 1610 1611 1609 1607 1606 1605 1604 1603 1603 1602 1600 1598 1597 1597 1598 1598 1597 1595 1592 1590 1587 1585 1582 1579 1576 1572 1567 1562 1558 1554 1550 1545 1540 1535 1530 1525 1520 1515 1508 1502 1496 1491 1485 1479 1475 1471 1467 1462 1455 1447 1440 1431 1423 1417
1608 1608 1607 1608 1611 1613 1614 1615 1616 1617 1618 1619 1619 1618 1619 1619 1619 1619 1620 1619 1619 1618 1617 1616 1615 1614 1613 1613 1613 1612 1612 1612 1612 1611 1611 1610 1609 1608 1606 1604 1605 1606 1604 1599 1597 1599 1600 1599 1597 1596 1594 1591 1588 1585 1583 1580 1577 1573 1570 1566 1561 1557 1552 1548 1543 1538 1533 1528 1523 1518 1513 1507 1501 1495 1489 1483 1478 1473 1469 1464 1459 1454 1448 1440 1433 1425 1418
1608 1608 1608 1609 1613 1615 1615 1616 1617 1618 1618 1618 1618 1618 1619 1619 1619 1619 1619 1619 1619 1618 1616 1615 1615 1613 1613 1613 1612 1611 1612 1612 1611 1611 1612 1612 1609 1608 1605 1603 1604 1608 1608 1604 1601 1601 1601 1598 1596 1594 1593 1590 1587 1584 1581 1578 1575 1571 1568 1563 1559 1555 1550 1546 1542 1537 1531 1526 1521 1516 1512 1506 1500 1494 1488 1481 1475 1471 1466 1461 1456 1451 1445 1438 1430 1423 1417
1608 1608 1609 1611 1614 1616 1616 1616 1617 1617 1617 1617 1618 1618 1618 1619 1619 1619 1619 1619 1618 1617 1616 1615 1614 1613 1612 1612 1612 1612 1612 1611 1611 1612 1613 1611 1610 1611 1611 1606 1602 1603 1605 1605 1603 1601 1599 1597 1595 1593 1591 1588 1585 1582 1579 1576 1573 1570 1566 1562 1558 1554 1549 1545 1540 1535 1530 1525 1519 1515 1510 1505 1498 1492 1486 1480 1473 1468 1464 1460 1455 1449 1443 1436 1429 1422 1416
1608 1609 1610 1611 1613 1614 1615 1616 1616 1616 1616 1616 1617 1617 1618 1618 1618 1619 1619 1618 1617 1616 1615 1614 1613 1613 1613 1612 1612 1611 1611 1612 1612 1612 1610 1609 1612 1616 1614 1607 1602 1602 1603 1604 1602 1600 1598 1595 1593 1591 1588 1586 1584 1581 1577 1574 1571 1567 1564 1561 1556 1552 1548 1543 1539 1534 1529 1524 1518 1513 1507 1502 1496 1490 1485 1480 1473 1466 1461 1458 1454 1448 1441 1435 1429 1422 1416
1609 1610 1611 1611 1611 1612 1613 1614 1614 1614 1615 1615 1616 1616 1617 1618 1618 1618 1618 1617 1616 1615 1615 1614 1614 1614 1613 1611 1610 1609 1609 1611 1614 1614 1611 1611 1614 1615 1609 1602 1601 1603 1603 1602 1600 1599 1596 1594 1592 1589 1586 1584 1581 1578 1576 1572 1569 1565 1562 1558 1554 1550 1545 1540 1536 1532 1527 1522 1517 1511 1505 1499 1494 1489 1484 1478 1472 1464 1455 1449 1445 1441 1436 1431 1426 1421 1415
1610 1610 1611 1612 1612 1612 1613 1613 1613 1613 1614 1614 1615 1616 1617 1617 1617 1617 1617 1616 1615 1615 1614 1614 1614 1614 1612 1610 1610 1610 1610 1611 1612 1611 1609 1608 1609 1609 1605 1602 1602 1603 1601 1599 1598 1596 1594 1592 1590 1587 1584 1582 1579 1576 1573 1570 1566 1563 1560 1556 1552 1548 1543 1538 1534 1530 1525 1520 1515 1509 1503 1498 1493 1487 1481 1474 1468 1460 1452 1445 1439 1435 1432 1428 1424 1419 1414